Previsão horária em Sena Madureira

Hoje, 30 Novembro, Segunda-feira

Tempo Temperatura Precipitação Vento Pressão Humidade
00:00 +26°C° 0 mm 1 m/s 745 mmHg 85%
01:00 +26°C° 0 mm 1 m/s 745 mmHg 82%
02:00 +25°C° 0 mm 1 m/s 745 mmHg 85%
03:00 +23°C° 0 mm 0 m/s 745 mmHg 89%
04:00 +22°C° 0 mm 0 m/s 745 mmHg 92%
05:00 +23°C° 0.5 mm 0 m/s 746 mmHg 89%
06:00 +24°C° 0.5 mm 0 m/s 746 mmHg 87%
07:00 +25°C° 0.5 mm 0 m/s 747 mmHg 84%
08:00 +28°C° 0 mm 0 m/s 747 mmHg 72%
09:00 +33°C° 0 mm 1 m/s 747 mmHg 61%
10:00 +35°C° 0 mm 1 m/s 747 mmHg 49%
11:00 +36°C° 0 mm 1 m/s 746 mmHg 46%
12:00 +35°C° 0 mm 0 m/s 745 mmHg 43%
13:00 +36°C° 0 mm 0 m/s 744 mmHg 39%
14:00 +36°C° 0.2 mm 1 m/s 743 mmHg 47%
15:00 +34°C° 0.2 mm 1 m/s 742 mmHg 54%
16:00 +33°C° 0.2 mm 1 m/s 741 mmHg 61%
17:00 +31°C° 0.3 mm 1 m/s 742 mmHg 70%
18:00 +29°C° 0.3 mm 1 m/s 743 mmHg 78%
19:00 +27°C° 0.3 mm 1 m/s 743 mmHg 87%
20:00 +27°C° 0.4 mm 1 m/s 744 mmHg 90%
21:00 +26°C° 0.4 mm 1 m/s 744 mmHg 93%
22:00 +26°C° 0.4 mm 1 m/s 745 mmHg 96%
23:00 +25°C° 1.1 mm 1 m/s 745 mmHg 97%

Amanhã, 1 Dezembro, Terça-feira

Tempo Temperatura Precipitação Vento Pressão Humidade
00:00 +23°C° 1.1 mm 0 m/s 744 mmHg 98%
01:00 +23°C° 1.1 mm 0 m/s 744 mmHg 99%
02:00 +22°C° 1 mm 0 m/s 744 mmHg 99%
03:00 +22°C° 1 mm 0 m/s 744 mmHg 99%
04:00 +22°C° 1 mm 0 m/s 744 mmHg 99%
05:00 +23°C° 1.2 mm 0 m/s 745 mmHg 97%
06:00 +24°C° 1.2 mm 0 m/s 745 mmHg 95%
07:00 +24°C° 1.2 mm 0 m/s 746 mmHg 93%
08:00 +28°C° 0 mm 0 m/s 746 mmHg 77%
09:00 +31°C° 0 mm 0 m/s 747 mmHg 61%
10:00 +37°C° 0 mm 1 m/s 747 mmHg 44%
11:00 +36°C° 0 mm 1 m/s 746 mmHg 44%
12:00 +36°C° 0 mm 1 m/s 745 mmHg 44%
13:00 +34°C° 0 mm 0 m/s 743 mmHg 44%
14:00 +34°C° 0 mm 0 m/s 743 mmHg 45%
15:00 +34°C° 0 mm 0 m/s 742 mmHg 46%
16:00 +35°C° 0 mm 1 m/s 741 mmHg 47%
17:00 +32°C° 2.5 mm 1 m/s 741 mmHg 64%
18:00 +29°C° 2.5 mm 1 m/s 742 mmHg 80%
19:00 +26°C° 2.5 mm 1 m/s 742 mmHg 96%
20:00 +25°C° 1.3 mm 1 m/s 743 mmHg 96%
21:00 +25°C° 1.3 mm 1 m/s 744 mmHg 97%
22:00 +25°C° 1.3 mm 1 m/s 744 mmHg 97%
23:00 +23°C° 0.3 mm 0 m/s 744 mmHg 97%

Depois de amanhã, 2 Dezembro, Quarta-feira

Tempo Temperatura Precipitação Vento Pressão Humidade
00:00 +23°C° 0.3 mm 0 m/s 743 mmHg 97%
01:00 +23°C° 0.3 mm 0 m/s 743 mmHg 98%
02:00 +23°C° 0.6 mm 0 m/s 743 mmHg 97%
03:00 +22°C° 0.6 mm 0 m/s 743 mmHg 97%
04:00 +22°C° 0.6 mm 0 m/s 743 mmHg 97%
05:00 +23°C° 0.3 mm 0 m/s 744 mmHg 96%
06:00 +24°C° 0.3 mm 0 m/s 745 mmHg 95%
07:00 +24°C° 0.3 mm 0 m/s 745 mmHg 94%
08:00 +27°C° 0.7 mm 0 m/s 745 mmHg 84%
09:00 +29°C° 0.7 mm 0 m/s 745 mmHg 74%
10:00 +31°C° 0.7 mm 0 m/s 746 mmHg 63%
11:00 +33°C° 1.3 mm 1 m/s 745 mmHg 63%
12:00 +34°C° 1.3 mm 1 m/s 744 mmHg 63%
13:00 +34°C° 1.3 mm 1 m/s 743 mmHg 63%
14:00 +34°C° 0 mm 1 m/s 742 mmHg 59%
15:00 +34°C° 0 mm 1 m/s 742 mmHg 56%
16:00 +34°C° 0 mm 1 m/s 741 mmHg 52%
17:00 +31°C° 0.6 mm 1 m/s 742 mmHg 67%
18:00 +28°C° 0.6 mm 1 m/s 742 mmHg 81%
19:00 +26°C° 0.6 mm 1 m/s 743 mmHg 96%
20:00 +25°C° 0 mm 1 m/s 743 mmHg 96%
21:00 +25°C° 0 mm 1 m/s 744 mmHg 96%
22:00 +23°C° 0 mm 0 m/s 744 mmHg 96%
23:00 +23°C° 0 mm 0 m/s 744 mmHg 96%

3 Dezembro, Quinta-feira

Tempo Temperatura Precipitação Vento Pressão Humidade
00:00 +23°C° 0 mm 0 m/s 743 mmHg 97%
01:00 +23°C° 0 mm 0 m/s 743 mmHg 97%
02:00 +23°C° 0 mm 0 m/s 743 mmHg 97%
03:00 +23°C° 0 mm 0 m/s 743 mmHg 97%
04:00 +23°C° 0 mm 0 m/s 743 mmHg 96%
05:00 +23°C° 0 mm 0 m/s 744 mmHg 95%
06:00 +24°C° 0 mm 0 m/s 745 mmHg 93%
07:00 +24°C° 0 mm 0 m/s 745 mmHg 92%
08:00 +28°C° 0.1 mm 1 m/s 745 mmHg 82%
09:00 +30°C° 0.1 mm 1 m/s 746 mmHg 73%
10:00 +32°C° 0.1 mm 1 m/s 746 mmHg 64%
11:00 +33°C° 0.1 mm 1 m/s 745 mmHg 58%
12:00 +35°C° 0.1 mm 1 m/s 744 mmHg 51%
13:00 +36°C° 0.1 mm 1 m/s 743 mmHg 44%
14:00 +36°C° 0 mm 1 m/s 742 mmHg 47%
15:00 +35°C° 0 mm 1 m/s 742 mmHg 50%
16:00 +32°C° 0 mm 0 m/s 741 mmHg 53%
17:00 +31°C° 1.4 mm 1 m/s 742 mmHg 68%
18:00 +28°C° 1.4 mm 1 m/s 742 mmHg 83%
19:00 +25°C° 1.4 mm 2 m/s 743 mmHg 98%
20:00 +25°C° 1.6 mm 1 m/s 744 mmHg 98%
21:00 +25°C° 1.6 mm 1 m/s 744 mmHg 98%
22:00 +23°C° 1.6 mm 0 m/s 745 mmHg 99%
23:00 +23°C° 0.2 mm 0 m/s 745 mmHg 99%

4 Dezembro, Sexta-feira

Tempo Temperatura Precipitação Vento Pressão Humidade
00:00 +23°C° 0.2 mm 0 m/s 744 mmHg 99%
01:00 +23°C° 0.2 mm 0 m/s 744 mmHg 98%
02:00 +23°C° 0 mm 0 m/s 744 mmHg 98%
03:00 +23°C° 0 mm 0 m/s 744 mmHg 98%
04:00 +23°C° 0 mm 0 m/s 744 mmHg 98%
05:00 +23°C° 0 mm 0 m/s 745 mmHg 98%
06:00 +23°C° 0 mm 0 m/s 746 mmHg 97%
07:00 +23°C° 0 mm 0 m/s 746 mmHg 97%
08:00 +26°C° 0 mm 1 m/s 746 mmHg 91%
09:00 +27°C° 0 mm 1 m/s 747 mmHg 85%
10:00 +28°C° 0 mm 1 m/s 747 mmHg 80%
11:00 +29°C° 0 mm 1 m/s 746 mmHg 75%
12:00 +30°C° 0 mm 1 m/s 745 mmHg 69%
13:00 +31°C° 0 mm 1 m/s 744 mmHg 64%
14:00 +31°C° 0 mm 1 m/s 743 mmHg 64%
15:00 +30°C° 0 mm 1 m/s 743 mmHg 65%
16:00 +30°C° 0 mm 1 m/s 742 mmHg 65%
17:00 +29°C° 0 mm 1 m/s 743 mmHg 69%
18:00 +28°C° 0 mm 1 m/s 743 mmHg 73%
19:00 +27°C° 0 mm 1 m/s 744 mmHg 76%
20:00 +24°C° 0.6 mm 0 m/s 744 mmHg 82%
21:00 +23°C° 0.6 mm 0 m/s 745 mmHg 87%
22:00 +22°C° 0.6 mm 0 m/s 745 mmHg 93%
23:00 +22°C° 1.3 mm 0 m/s 745 mmHg 94%

5 Dezembro, Sábado

Tempo Temperatura Precipitação Vento Pressão Humidade
00:00 +22°C° 1.3 mm 0 m/s 745 mmHg 96%
01:00 +22°C° 1.3 mm 0 m/s 745 mmHg 98%
02:00 +22°C° 1.1 mm 0 m/s 745 mmHg 98%
03:00 +22°C° 1.1 mm 0 m/s 745 mmHg 98%
04:00 +24°C° 1.1 mm 1 m/s 745 mmHg 99%
05:00 +25°C° 0 mm 1 m/s 746 mmHg 98%
06:00 +25°C° 0 mm 1 m/s 746 mmHg 97%
07:00 +26°C° 0 mm 1 m/s 747 mmHg 96%
08:00 +27°C° 0.8 mm 1 m/s 747 mmHg 93%
09:00 +28°C° 0.8 mm 1 m/s 747 mmHg 91%
10:00 +30°C° 0.8 mm 1 m/s 747 mmHg 88%
11:00 +30°C° 1.5 mm 1 m/s 746 mmHg 88%
12:00 +30°C° 1.5 mm 1 m/s 746 mmHg 87%
13:00 +30°C° 1.5 mm 1 m/s 745 mmHg 86%
14:00 +29°C° 1.4 mm 1 m/s 745 mmHg 89%
15:00 +28°C° 1.4 mm 1 m/s 744 mmHg 91%
16:00 +25°C° 1.4 mm 0 m/s 744 mmHg 94%
17:00 +27°C° 0.6 mm 1 m/s 745 mmHg 95%
18:00 +26°C° 0.6 mm 1 m/s 745 mmHg 96%
19:00 +25°C° 0.6 mm 1 m/s 746 mmHg 97%
20:00 +25°C° 0.4 mm 1 m/s 746 mmHg 98%
21:00 +25°C° 0.4 mm 1 m/s 746 mmHg 98%
22:00 +25°C° 0.4 mm 1 m/s 747 mmHg 98%
23:00 +24°C° 0.6 mm 1 m/s 747 mmHg 98%
Mostrar mais

Necessitamos do seu Consentimento

A Meteoprog e os seus Fornecedores de Serviços podem armazenar e aceder a dados pessoais como cookies, identificadores do dispositivo ou outras tecnologias semelhantes existentes no seu dispositivo e processar estes dados para personalizar conteúdos e anúncios, assim como funcionalidades nas redes sociais e análise de tráfego.

  • Armazenar e/ou aceder a informações no seu dispositivo

    Os cookies, identificadores do dispositivo ou outras informações podem ser armazenados ou acedidos no seu dispositivo, para os fins acima indicados.

  • Anúncios e conteúdos personalizados, medição de anúncios e conteúdos, dados sobre o público-alvo e desenvolvimento de produtos

    Os anúncios e os conteúdos podem ser personalizados com base num perfil. Podem ser adicionados dados adicionais para uma maior personalização dos anúncios e dos conteúdos. A eficácia dos anúncios e dos conteúdos pode ser medida. Podem ser obtidas informações sobre o público que visualizou os anúncios e os conteúdos. Estes dados podem ser usados para desenvolver ou melhorar sistemas, softwares ou a experiência do utilizador.

Ao clicar em "Eu concordo”, permitirá o uso de cookies, identificadores do dispositivo e web beacons mencionados ou outras tecnologias semelhantes. As configurações do navegador do seu dispositivo podem ser alteradas.

Para certos fins, podem ser invocados interesses legítimos ao invés de consentimento. Pode ler mais informação sobre este assunto na nossa Política de Privacidade e Cookies.